Date,TemperatureHighF,TemperatureAvgF,TemperatureLowF,DewpointHighF,DewpointAvgF,DewpointLowF,HumidityHigh,HumidityAvg,HumidityLow,PressureMaxIn,PressureMinIn,WindSpeedMaxMPH,WindSpeedAvgMPH,GustSpeedMaxMPH,PrecipitationSumIn
2013-2-1,72.5,56.7,45.5,46.3,37.3,24.7,95,52,18,30.32,30.11,12,3,12,0.00
2013-2-2,74.7,58.4,43.3,53.5,47.8,41.4,97,72,38,30.38,30.07,11,3,11,0.00
2013-2-3,75.9,60.0,46.6,51.0,46.8,38.1,99,67,33,30.20,29.91,15,4,15,0.00
2013-2-4,75.2,57.6,42.8,51.6,46.5,40.6,99,71,34,30.17,29.92,11,3,11,0.00
2013-2-5,80.1,61.4,44.1,57.0,50.4,41.4,99,71,34,30.12,29.85,14,3,14,0.00
2013-2-6,79.5,67.2,55.4,66.5,61.4,54.8,99,82,53,30.01,29.87,14,4,14,0.00
2013-2-7,79.7,70.5,59.7,70.1,63.7,59.1,99,80,59,29.96,29.60,16,6,16,0.00
2013-2-8,83.7,70.4,59.5,66.5,61.9,55.4,99,78,41,29.91,29.65,12,6,16,0.00
2013-2-9,77.0,66.4,54.3,61.6,58.4,53.3,99,77,54,30.07,29.91,10,4,14,0.01
2013-2-10,76.8,69.0,63.9,61.7,58.7,56.1,87,70,55,30.14,29.97,15,8,20,0.00
2013-2-11,82.4,72.4,60.6,68.7,63.0,57.3,97,74,45,30.10,29.82,11,6,17,0.00
2013-2-12,85.8,73.2,62.1,69.8,65.6,61.5,99,79,48,29.97,29.70,13,6,17,0.00
2013-2-13,86.4,74.2,63.1,71.3,67.0,59.8,99,80,47,29.78,29.55,21,10,26,0.01
2013-2-14,73.4,63.4,59.2,67.7,61.9,58.9,99,95,78,29.86,29.73,8,2,13,1.73
2013-2-15,74.3,61.9,55.6,61.3,58.7,55.3,99,90,61,29.93,29.80,6,2,9,0.06
2013-2-16,72.1,60.0,47.7,58.4,47.4,27.5,99,68,33,30.07,29.83,19,7,26,0.00
2013-2-17,58.8,47.4,36.9,39.8,23.8,14.6,85,44,21,30.36,29.82,12,5,21,0.00
2013-2-18,68.4,53.6,36.0,51.6,40.7,24.1,94,64,32,29.95,29.76,14,4,24,0.00
2013-2-19,79.2,64.3,48.9,60.3,53.8,47.4,99,72,43,29.95,29.64,16,4,24,0.00
2013-2-20,77.2,65.0,55.0,64.0,59.3,53.7,99,83,60,29.80,29.62,8,3,11,0.00
2013-2-21,84.2,70.2,59.0,71.9,64.2,58.7,99,83,56,29.73,29.52,10,4,13,0.00
2013-2-22,80.1,71.7,60.1,73.9,68.4,59.8,99,90,69,29.69,29.53,13,6,18,0.00
2013-2-23,87.3,74.6,66.2,71.8,67.9,62.2,99,82,45,29.61,29.41,17,6,24,0.06
2013-2-24,84.4,71.4,66.7,71.5,68.1,66.0,99,90,57,29.55,29.44,13,6,17,0.01
2013-2-25,85.3,75.0,66.4,76.5,68.4,62.5,99,82,48,29.92,29.50,12,5,16,0.00
2013-2-26,83.1,75.0,65.7,73.1,69.7,64.4,96,84,58,29.89,29.74,21,11,27,0.00
2013-2-27,78.8,67.6,59.7,64.5,60.0,52.5,99,79,49,30.03,29.88,9,5,13,0.01
2013-2-28,76.5,63.9,50.4,55.0,49.0,39.4,98,63,30,30.17,29.89,13,6,18,0.00